Location: Unspecified
(43.4680°N, 87.1740°E)
Time: 20:58:14
(UTC+00:00)

ATLAS 2AS CENTAUR R/B - Pass Details

Date: 17 April 2021
Orbit: 949 x 1263 km, 63.7° (Epoch: 07 May)

Event Time Altitude Azimuth Distance (km) Brightness Sun altitude
Rises 21:01:39 0° 324° (NW) 4,130 5.9 -23.3°
Reaches altitude 10° 21:04:45 10° 332° (NNW) 3,122 5.3 -22.9°
Maximum altitude 21:11:38 39° 39° (NE) 1,641 4.2 -21.9°
Drops below altitude 10° 21:18:02 10° 107° (ESE) 2,898 5.4 -21.0°
Sets 21:20:47 0° 115° (ESE) 3,803 5.9 -20.7°
